Regional Weather Roundup
Issued by NWS Jackson, KY

Home | Current Version | Previous Version | Text Only | Print | Product List | Glossary On
Versions: 1 2 3 4 5 6 7 8 9 10 11 12 13 14 15 16 17 18 19 20 21 22 23 24 25 26 27 28 29 30 31 32 33 34 35 36 37 38 39 40 41 42 43 44 45 46 47 48 49 50
000
ASUS43 KJKL 231111
RWRJKL

EAST KENTUCKY HOURLY WEATHER ROUNDUP
NATIONAL WEATHER SERVICE JACKSON KY
600 AM EST SUN NOV 23 2014

NOTE: "FAIR" INDICATES FEW OR NO CLOUDS BELOW 12,000 FEET WITH
NO SIGNIFICANT WEATHER AND/OR OBSTRUCTIONS TO VISIBILITY.

* THESE REPORTS ARE NOT UNDER NWS QUALITY CONTROL AND MAY NOT
  REPORT WEATHER SUCH AS PRECIPITATION AND FOG.

KYZ079-080-083-085-087-088-110-112-115-119-120-231200
...EASTERN KENTUCKY...

CITY           SKY/WX    TMP DP  RH WIND       PRES   REMARKS
JACKSON        MOCLDY    50  30  46 E3        30.05F
LONDON         PTCLDY    48  33  56 SE3       30.04F
SOMERSET*      PTCLDY    45  36  70 SE3       30.03F
MONTICELLO*    CLOUDY    57  43  59 S15G21    30.02F
MIDDLESBORO*   PTCLDY    38  33  82 SW3       30.10F
HARLAN APT*    MOSUNNY   50  34  53 E8        30.08F
BIG SANDY*     CLOUDY    52  33  48 SE8       30.08F
MOREHEAD APT*  CLOUDY    52  34  50 SE8G14    30.06F
$$

KYZ035-036-041-042-044-050-067-078-099-231200
...CENTRAL KENTUCKY...

CITY           SKY/WX    TMP DP  RH WIND       PRES   REMARKS
MT STERLING*   MOCLDY    46  36  66 S3        30.04F
FLEMING/MASON* CLOUDY    50  37  61 S7        30.04F
DANVILLE*      CLOUDY    46  37  71 SE7       30.01F
RICHMOND*      CLOUDY    50  36  57 CALM      30.01F
LEXINGTON      MOCLDY    51  38  60 S8        30.01F
FRANKFORT      MOCLDY    50  39  66 SE5       29.98F
$$

KYZ091>093-OHZ055-061-077-WVZ005-015-034-035-042-231200
...SOUTHERN OHIO/WEST VIRGINIA...

CITY           SKY/WX    TMP DP  RH WIND       PRES   REMARKS
COVINGTON      CLOUDY    50  38  63 S10       29.99F
COLUMBUS       CLOUDY    47  35  63 SE5       30.03F
DAYTON         CLOUDY    51  38  60 S13       29.98F
WILMINGTON     CLOUDY    48  37  65 S9        30.01F
HUNTINGTON     CLOUDY    46  29  51 E5        30.07F
CHARLESTON     MOCLDY    40  32  73 CALM      30.10S
PINEVILLE*     MOCLDY    36  32  85 MISG      30.20F
BECKLEY        PTCLDY    43  21  41 SE8       30.16S
BLUEFIELD      CLOUDY    45  27  49 SE3       30.17F
$$

VAZ002-007-008-TNZ017-027-036-066-071-231200
...SOUTHWEST VIRGINIA/EAST TENNESSEE...

CITY           SKY/WX    TMP DP  RH WIND       PRES   REMARKS
WISE*          PTCLDY    46  34  61 SE7       30.13F
JONESVILLE*    MOSUNNY   32  28  86 CALM      30.13F
ABINGDON*      CLOUDY    40  27  60 E7        30.16F WCI  35
BRISTOL        CLOUDY    36  27  69 CALM      30.16S
KNOXVILLE      CLOUDY    46  32  58 N8        30.07F
OAK RIDGE      CLOUDY    45  36  70 CALM      30.08F
CROSSVILLE     CLOUDY    53  39  59 SE5       30.02F
NASHVILLE      CLOUDY    55  41  59 SE6       29.95S
$$

...KEY TO REMARKS...
VSB - VISIBILITY IN MILES
WCI - WIND CHILL INDEX
HX  - HEAT INDEX

$$


USA.gov is the U.S. government's official web portal to all federal, state and local government web resources and services.